BAW12T EDDF-EGLL

Flight info

Callsign BAW12T
Flight time 1h 10m
Altitude 38000
Route OBOKA3W/25C OBOKA Z29 TORNU DCT ABNED L980 LOGAN
Aircraft B752/M-SDE3FGHIM3RWXY/LB1

Departure

Time 2026-05-07 09:45
Airport Frankfurt Main Airport (EDDF)

Arrival

Time 2026-05-07 10:55
Airport London Heathrow Airport (EGLL)
Time Latitude Longitude Altitude Speed Heading
2026-05-07 09:17 50.04966 8.58289 380 ft 0 kts 340°
2026-05-07 09:36 50.04950 8.58299 380 ft 2 kts 340°
2026-05-07 09:37 50.04940 8.58304 380 ft 2 kts 340°
2026-05-07 09:37 50.04926 8.58312 380 ft 2 kts 340°
2026-05-07 09:37 50.04908 8.58323 380 ft 2 kts 340°
2026-05-07 09:37 50.04894 8.58331 380 ft 2 kts 340°
2026-05-07 09:38 50.04881 8.58339 380 ft 1 kts 351°
2026-05-07 09:38 50.04873 8.58338 380 ft 1 kts 33°
2026-05-07 09:38 50.04867 8.58327 380 ft 1 kts 76°
2026-05-07 09:38 50.04866 8.58320 380 ft 0 kts 70°
2026-05-07 09:41 50.04874 8.58353 379 ft 6 kts 70°
2026-05-07 09:41 50.04898 8.58452 376 ft 12 kts 69°
2026-05-07 09:41 50.04930 8.58583 374 ft 11 kts 69°
2026-05-07 09:41 50.04921 8.58655 372 ft 11 kts 132°
2026-05-07 09:42 50.04841 8.58706 367 ft 14 kts 159°
2026-05-07 09:42 50.04692 8.58769 360 ft 16 kts 186°
2026-05-07 09:42 50.04617 8.58745 362 ft 15 kts 201°
2026-05-07 09:42 50.04531 8.58650 362 ft 15 kts 220°
2026-05-07 09:43 50.04481 8.58564 365 ft 0 kts 250°
2026-05-07 09:43 50.04481 8.58562 365 ft 0 kts 250°
2026-05-07 09:43 50.04481 8.58560 365 ft 0 kts 250°
2026-05-07 09:44 50.04474 8.58533 366 ft 18 kts 250°
2026-05-07 09:44 50.04343 8.57973 370 ft 92 kts 249°
2026-05-07 09:44 50.04033 8.56702 365 ft 157 kts 252°
2026-05-07 09:45 50.03633 8.54987 939 ft 176 kts 252°
2026-05-07 09:45 50.03245 8.53191 1763 ft 187 kts 255°
2026-05-07 09:45 50.02980 8.51867 2175 ft 201 kts 256°
2026-05-07 09:45 50.02539 8.49798 3046 ft 210 kts 250°
2026-05-07 09:46 50.01260 8.47605 4260 ft 223 kts 204°
2026-05-07 09:46 50.00265 8.47272 4891 ft 227 kts 179°
2026-05-07 09:46 49.98196 8.47703 6136 ft 230 kts 178°
2026-05-07 09:46 49.96606 8.47739 7043 ft 233 kts 186°
2026-05-07 09:47 49.94960 8.47318 7662 ft 250 kts 195°
2026-05-07 09:47 49.93234 8.46671 8315 ft 265 kts 197°
2026-05-07 09:47 49.92090 8.45988 8907 ft 265 kts 214°
2026-05-07 09:47 49.90791 8.44046 9821 ft 263 kts 239°
2026-05-07 09:48 49.89500 8.40900 11006 ft 267 kts 240°
2026-05-07 09:48 49.88898 8.39212 11422 ft 274 kts 252°
2026-05-07 09:48 49.88640 8.35205 11997 ft 296 kts 277°
2026-05-07 09:48 49.88755 8.33111 12289 ft 309 kts 275°
2026-05-07 09:49 49.88965 8.29717 12686 ft 328 kts 282°
2026-05-07 09:49 49.90115 8.25287 13178 ft 350 kts 304°
2026-05-07 09:49 49.91052 8.23331 13691 ft 352 kts 308°
2026-05-07 09:49 49.92477 8.20376 14461 ft 356 kts 307°
2026-05-07 09:50 49.94012 8.17332 15223 ft 361 kts 313°
2026-05-07 09:50 49.95841 8.14775 15937 ft 365 kts 319°
2026-05-07 09:50 49.97746 8.12213 16665 ft 370 kts 319°
2026-05-07 09:50 49.99683 8.09612 17405 ft 375 kts 319°
2026-05-07 09:51 50.02325 8.06069 18448 ft 381 kts 319°
2026-05-07 09:51 50.03671 8.04264 19002 ft 384 kts 319°
2026-05-07 09:51 50.05684 8.01563 19824 ft 387 kts 319°
2026-05-07 09:51 50.07682 7.98880 20559 ft 391 kts 319°
2026-05-07 09:52 50.09755 7.96096 21362 ft 394 kts 319°
2026-05-07 09:52 50.11837 7.93296 22085 ft 398 kts 319°
2026-05-07 09:52 50.13930 7.90476 22810 ft 402 kts 319°
2026-05-07 09:52 50.16012 7.87669 23467 ft 406 kts 319°
2026-05-07 09:53 50.18161 7.84769 24119 ft 410 kts 319°
2026-05-07 09:53 50.21034 7.80884 24957 ft 417 kts 319°
2026-05-07 09:53 50.22488 7.78917 25384 ft 420 kts 319°
2026-05-07 09:53 50.24765 7.76032 26022 ft 424 kts 325°
2026-05-07 09:54 50.27344 7.73722 26611 ft 430 kts 334°
2026-05-07 09:54 50.30059 7.71830 27191 ft 434 kts 336°
2026-05-07 09:54 50.32797 7.69928 27758 ft 439 kts 336°
2026-05-07 09:54 50.35595 7.67994 28348 ft 442 kts 336°
2026-05-07 09:55 50.38394 7.66063 28894 ft 446 kts 336°
2026-05-07 09:55 50.41244 7.64100 29427 ft 450 kts 336°
2026-05-07 09:55 50.44096 7.62136 29942 ft 453 kts 336°
2026-05-07 09:55 50.47977 7.59461 30612 ft 458 kts 336°
2026-05-07 09:56 50.49936 7.58109 30924 ft 461 kts 336°
2026-05-07 09:56 50.52863 7.56087 31461 ft 462 kts 336°
2026-05-07 09:56 50.55690 7.53967 32013 ft 461 kts 331°
2026-05-07 09:56 50.58353 7.51355 32548 ft 459 kts 327°
2026-05-07 09:57 50.60930 7.48748 33028 ft 459 kts 328°
2026-05-07 09:57 50.63582 7.46056 33441 ft 458 kts 327°
2026-05-07 09:57 50.66231 7.43353 33829 ft 458 kts 327°
2026-05-07 09:57 50.69729 7.39771 34358 ft 457 kts 327°
2026-05-07 09:58 50.71462 7.37807 34584 ft 457 kts 321°
2026-05-07 09:58 50.74345 7.33277 35009 ft 457 kts 308°
2026-05-07 09:58 50.75609 7.30490 35236 ft 457 kts 301°
2026-05-07 09:58 50.77133 7.26217 35567 ft 456 kts 298°
2026-05-07 09:59 50.78620 7.21822 35885 ft 457 kts 297°
2026-05-07 09:59 50.80104 7.17377 36231 ft 455 kts 297°
2026-05-07 09:59 50.81569 7.12939 36536 ft 455 kts 297°
2026-05-07 09:59 50.83479 7.07095 36880 ft 456 kts 296°
2026-05-07 10:00 50.84425 7.04187 37055 ft 456 kts 296°
2026-05-07 10:00 50.86350 6.98247 37395 ft 457 kts 296°
2026-05-07 10:00 50.87793 6.93777 37655 ft 457 kts 296°
2026-05-07 10:00 50.88745 6.90823 37813 ft 458 kts 296°
2026-05-07 10:01 50.90193 6.86321 38008 ft 456 kts 296°
2026-05-07 10:01 50.93516 6.75952 38035 ft 456 kts 296°
2026-05-07 10:02 50.95871 6.68575 38034 ft 456 kts 296°
2026-05-07 10:02 50.98719 6.59624 38034 ft 455 kts 296°
2026-05-07 10:03 51.01541 6.50725 38035 ft 455 kts 296°
2026-05-07 10:03 51.04383 6.41728 38035 ft 456 kts 296°
2026-05-07 10:04 51.07195 6.32793 38036 ft 456 kts 295°
2026-05-07 10:04 51.09988 6.23886 38036 ft 455 kts 295°
2026-05-07 10:05 51.12906 6.14536 38032 ft 455 kts 294°
2026-05-07 10:05 51.14888 6.05008 38039 ft 455 kts 284°
2026-05-07 10:06 51.16509 5.95293 38033 ft 454 kts 284°
2026-05-07 10:06 51.18122 5.85607 38036 ft 454 kts 287°
2026-05-07 10:07 51.20474 5.76299 38038 ft 455 kts 292°
2026-05-07 10:07 51.22900 5.67042 38033 ft 454 kts 292°
2026-05-07 10:08 51.25328 5.57777 38038 ft 455 kts 292°
2026-05-07 10:08 51.27753 5.48501 38040 ft 455 kts 292°
2026-05-07 10:09 51.30165 5.39234 38042 ft 455 kts 292°
2026-05-07 10:09 51.32569 5.29981 38046 ft 455 kts 291°
2026-05-07 10:10 51.34993 5.20604 38045 ft 455 kts 291°
2026-05-07 10:10 51.37378 5.11339 38050 ft 455 kts 291°
2026-05-07 10:11 51.39772 5.02002 38055 ft 455 kts 291°
2026-05-07 10:11 51.42162 4.92638 38057 ft 455 kts 291°
2026-05-07 10:12 51.44545 4.83265 38053 ft 455 kts 291°
2026-05-07 10:12 51.46906 4.73941 38057 ft 455 kts 291°
2026-05-07 10:13 51.49231 4.64720 38062 ft 456 kts 291°
2026-05-07 10:13 51.51580 4.55366 38057 ft 455 kts 291°
2026-05-07 10:14 51.53891 4.45996 38053 ft 455 kts 290°
2026-05-07 10:14 51.56137 4.36586 38057 ft 455 kts 291°
2026-05-07 10:15 51.58428 4.27190 38057 ft 455 kts 290°
2026-05-07 10:15 51.60747 4.17742 38060 ft 456 kts 291°
2026-05-07 10:16 51.63069 4.08276 38062 ft 456 kts 291°
2026-05-07 10:16 51.65387 3.98804 38063 ft 455 kts 291°
2026-05-07 10:17 51.67698 3.89319 38068 ft 455 kts 291°
2026-05-07 10:17 51.70000 3.79836 38066 ft 455 kts 291°
2026-05-07 10:18 51.72293 3.70407 38067 ft 455 kts 291°
2026-05-07 10:18 51.74611 3.60928 38071 ft 455 kts 291°
2026-05-07 10:19 51.76897 3.51417 38074 ft 455 kts 290°
2026-05-07 10:19 51.79166 3.41910 38073 ft 455 kts 291°
2026-05-07 10:20 51.81414 3.32405 38075 ft 456 kts 290°
2026-05-07 10:20 51.83573 3.22849 38071 ft 456 kts 284°
2026-05-07 10:21 51.84248 3.12789 38092 ft 455 kts 266°
2026-05-07 10:21 51.83801 3.02561 38076 ft 455 kts 265°
2026-05-07 10:22 51.83229 2.92520 38066 ft 443 kts 264°
2026-05-07 10:22 51.82930 2.87641 38060 ft 426 kts 264°
2026-05-07 10:22 51.82638 2.83014 38066 ft 417 kts 264°
2026-05-07 10:23 51.82011 2.73603 38078 ft 427 kts 264°
2026-05-07 10:23 51.81361 2.64101 37936 ft 432 kts 264°
2026-05-07 10:23 51.81023 2.59219 37363 ft 440 kts 264°
2026-05-07 10:24 51.80685 2.54349 36774 ft 437 kts 264°
2026-05-07 10:24 51.80349 2.49531 36170 ft 437 kts 264°
2026-05-07 10:24 51.80007 2.44632 35550 ft 437 kts 263°
2026-05-07 10:24 51.79668 2.39842 34887 ft 429 kts 263°
2026-05-07 10:25 51.79337 2.35194 34243 ft 417 kts 264°
2026-05-07 10:25 51.78999 2.30467 33547 ft 432 kts 264°
2026-05-07 10:25 51.78653 2.25604 32925 ft 444 kts 264°
2026-05-07 10:25 51.78321 2.20722 32330 ft 444 kts 265°
2026-05-07 10:26 51.78036 2.15728 31715 ft 444 kts 265°
2026-05-07 10:26 51.77750 2.10813 31113 ft 445 kts 265°
2026-05-07 10:26 51.77459 2.05871 30463 ft 447 kts 265°
2026-05-07 10:26 51.77163 2.00884 29813 ft 447 kts 265°
2026-05-07 10:27 51.76860 1.95876 29171 ft 444 kts 265°
2026-05-07 10:27 51.76566 1.90999 28563 ft 437 kts 265°
2026-05-07 10:27 51.76278 1.86176 27980 ft 429 kts 265°
2026-05-07 10:27 51.75987 1.81437 27405 ft 424 kts 264°
2026-05-07 10:28 51.75693 1.76737 26816 ft 419 kts 265°
2026-05-07 10:28 51.75412 1.72151 26338 ft 415 kts 265°
2026-05-07 10:28 51.75122 1.67511 25758 ft 419 kts 264°
2026-05-07 10:28 51.74831 1.62901 25339 ft 410 kts 264°
2026-05-07 10:29 51.74544 1.58392 25038 ft 400 kts 264°
2026-05-07 10:29 51.74263 1.53917 25068 ft 403 kts 264°
2026-05-07 10:29 51.73978 1.49403 25068 ft 407 kts 264°
2026-05-07 10:30 51.73415 1.40662 25052 ft 382 kts 264°
2026-05-07 10:30 51.73136 1.36336 24491 ft 398 kts 264°
2026-05-07 10:30 51.72855 1.32031 23973 ft 378 kts 263°
2026-05-07 10:30 51.72583 1.27893 22717 ft 374 kts 263°
2026-05-07 10:31 51.72316 1.23857 21594 ft 365 kts 263°
2026-05-07 10:31 51.72050 1.19870 20432 ft 359 kts 263°
2026-05-07 10:31 51.71786 1.15932 19284 ft 351 kts 263°
2026-05-07 10:31 51.71532 1.12166 18439 ft 333 kts 263°
2026-05-07 10:32 51.71283 1.08467 17922 ft 340 kts 263°
2026-05-07 10:32 51.71024 1.04661 17322 ft 345 kts 263°
2026-05-07 10:32 51.70764 1.00858 16784 ft 339 kts 263°
2026-05-07 10:32 51.70507 0.97102 16277 ft 333 kts 263°
2026-05-07 10:33 51.70254 0.93440 16039 ft 327 kts 263°
2026-05-07 10:33 51.70002 0.89804 16061 ft 332 kts 263°
2026-05-07 10:33 51.69741 0.86059 16047 ft 337 kts 263°
2026-05-07 10:33 51.69484 0.82368 16053 ft 334 kts 263°
2026-05-07 10:34 51.69221 0.78632 16057 ft 335 kts 263°
2026-05-07 10:34 51.68956 0.74870 16048 ft 336 kts 263°
2026-05-07 10:34 51.68694 0.71184 16057 ft 335 kts 263°
2026-05-07 10:35 51.68176 0.63925 15920 ft 338 kts 263°
2026-05-07 10:35 51.67909 0.60203 15165 ft 338 kts 264°
2026-05-07 10:35 51.67638 0.56456 14658 ft 331 kts 264°
2026-05-07 10:35 51.67377 0.52860 14389 ft 316 kts 264°
2026-05-07 10:36 51.67121 0.49338 14143 ft 323 kts 263°
2026-05-07 10:36 51.66859 0.45748 13628 ft 326 kts 263°
2026-05-07 10:36 51.66593 0.42121 13006 ft 325 kts 263°
2026-05-07 10:36 51.66330 0.38556 12376 ft 321 kts 263°
2026-05-07 10:37 51.66067 0.35018 11729 ft 319 kts 263°
2026-05-07 10:37 51.65804 0.31480 11100 ft 318 kts 263°
2026-05-07 10:37 51.65547 0.28036 10804 ft 311 kts 263°
2026-05-07 10:37 51.65287 0.24562 10659 ft 310 kts 263°
2026-05-07 10:38 51.65034 0.21203 10428 ft 295 kts 263°
2026-05-07 10:38 51.64791 0.17989 10211 ft 288 kts 263°
2026-05-07 10:38 51.64561 0.14824 10014 ft 290 kts 264°
2026-05-07 10:38 51.64405 0.11598 9814 ft 290 kts 266°
2026-05-07 10:39 51.64271 0.08453 9643 ft 292 kts 266°
2026-05-07 10:39 51.64133 0.05190 9485 ft 309 kts 266°
2026-05-07 10:39 51.63994 0.01842 9285 ft 305 kts 266°
2026-05-07 10:39 51.63859 -0.01470 9068 ft 294 kts 266°
2026-05-07 10:40 51.63733 -0.04668 8873 ft 283 kts 266°
2026-05-07 10:40 51.63618 -0.07700 8700 ft 274 kts 266°
2026-05-07 10:40 51.63510 -0.10643 8545 ft 264 kts 266°
2026-05-07 10:40 51.63412 -0.13441 8404 ft 255 kts 266°
2026-05-07 10:41 51.63316 -0.16175 8266 ft 244 kts 266°
2026-05-07 10:41 51.63222 -0.18847 8146 ft 243 kts 266°
2026-05-07 10:41 51.63128 -0.21548 8048 ft 250 kts 266°
2026-05-07 10:41 51.63030 -0.24312 7935 ft 250 kts 266°
2026-05-07 10:42 51.62936 -0.27023 7815 ft 247 kts 266°
2026-05-07 10:42 51.62841 -0.29751 7700 ft 246 kts 266°
2026-05-07 10:42 51.62749 -0.32441 7585 ft 245 kts 266°
2026-05-07 10:42 51.62658 -0.35145 7471 ft 245 kts 266°
2026-05-07 10:43 51.62565 -0.37851 7358 ft 245 kts 266°
2026-05-07 10:43 51.62472 -0.40600 7270 ft 245 kts 266°
2026-05-07 10:43 51.62379 -0.43357 7196 ft 248 kts 267°
2026-05-07 10:43 51.62284 -0.46131 7145 ft 249 kts 267°
2026-05-07 10:44 51.62189 -0.48902 7108 ft 248 kts 268°
2026-05-07 10:44 51.62093 -0.51656 7070 ft 246 kts 268°
2026-05-07 10:44 51.61997 -0.54432 7063 ft 247 kts 267°
2026-05-07 10:44 51.61900 -0.57182 7069 ft 247 kts 268°
2026-05-07 10:45 51.61801 -0.59943 6988 ft 246 kts 268°
2026-05-07 10:45 51.61703 -0.62675 6924 ft 243 kts 268°
2026-05-07 10:45 51.61605 -0.65368 6646 ft 246 kts 267°
2026-05-07 10:45 51.61504 -0.68146 6178 ft 250 kts 267°
2026-05-07 10:46 51.61404 -0.70869 5917 ft 247 kts 267°
2026-05-07 10:46 51.61302 -0.73594 5395 ft 242 kts 267°
2026-05-07 10:46 51.61202 -0.76238 4975 ft 233 kts 267°
2026-05-07 10:46 51.61099 -0.78789 4564 ft 226 kts 263°
2026-05-07 10:47 51.60570 -0.81100 4191 ft 219 kts 234°
2026-05-07 10:47 51.59639 -0.83020 3792 ft 215 kts 230°
2026-05-07 10:47 51.58698 -0.84879 3508 ft 214 kts 230°
2026-05-07 10:47 51.57741 -0.86688 3257 ft 214 kts 220°
2026-05-07 10:48 51.56419 -0.87692 3042 ft 209 kts 186°
2026-05-07 10:48 51.55002 -0.87833 2960 ft 199 kts 180°
2026-05-07 10:48 51.53667 -0.87792 2966 ft 183 kts 166°
2026-05-07 10:48 51.52612 -0.86777 2990 ft 183 kts 127°
2026-05-07 10:49 51.51899 -0.85015 2980 ft 189 kts 120°
2026-05-07 10:49 51.51244 -0.83252 2975 ft 184 kts 120°
2026-05-07 10:49 51.50581 -0.81481 2962 ft 184 kts 120°
2026-05-07 10:49 51.49923 -0.79721 2963 ft 184 kts 120°
2026-05-07 10:50 51.49258 -0.77941 2963 ft 185 kts 120°
2026-05-07 10:50 51.48603 -0.76176 2965 ft 185 kts 120°
2026-05-07 10:50 51.47958 -0.74423 2965 ft 185 kts 117°
2026-05-07 10:50 51.47677 -0.72451 2973 ft 183 kts 90°
2026-05-07 10:51 51.47690 -0.70346 2775 ft 186 kts 90°
2026-05-07 10:51 51.47686 -0.68351 2519 ft 175 kts 90°
2026-05-07 10:51 51.47689 -0.66513 2319 ft 159 kts 90°
2026-05-07 10:51 51.47694 -0.64756 2103 ft 161 kts 90°
2026-05-07 10:52 51.47700 -0.62988 1916 ft 158 kts 90°
2026-05-07 10:52 51.47707 -0.61227 1701 ft 161 kts 90°
2026-05-07 10:52 51.47714 -0.59458 1472 ft 160 kts 90°
2026-05-07 10:52 51.47721 -0.57708 1238 ft 150 kts 90°
2026-05-07 10:53 51.47728 -0.56164 1020 ft 135 kts 90°
2026-05-07 10:53 51.47733 -0.54775 832 ft 120 kts 90°
2026-05-07 10:53 51.47738 -0.53472 689 ft 116 kts 90°
2026-05-07 10:53 51.47742 -0.52162 571 ft 122 kts 90°
2026-05-07 10:54 51.47735 -0.50814 434 ft 122 kts 91°
2026-05-07 10:54 51.47744 -0.49484 255 ft 121 kts 90°
2026-05-07 10:54 51.47748 -0.48162 96 ft 119 kts 91°
2026-05-07 10:54 51.47749 -0.46977 88 ft 79 kts 88°
2026-05-07 10:55 51.47753 -0.46313 85 ft 56 kts 90°
2026-05-07 10:55 51.47748 -0.45801 84 ft 40 kts 91°
2026-05-07 10:55 51.47739 -0.45546 86 ft 15 kts 110°
2026-05-07 10:55 51.47669 -0.45468 87 ft 12 kts 173°
2026-05-07 10:56 51.47602 -0.45504 88 ft 9 kts 243°
2026-05-07 10:56 51.47595 -0.45608 88 ft 10 kts 269°
2026-05-07 10:56 51.47595 -0.45734 86 ft 13 kts 269°
2026-05-07 10:56 51.47594 -0.45901 84 ft 16 kts 269°
2026-05-07 10:57 51.47592 -0.46091 84 ft 18 kts 269°
2026-05-07 10:57 51.47595 -0.46341 83 ft 25 kts 269°
2026-05-07 10:57 51.47593 -0.46570 85 ft 20 kts 268°
2026-05-07 10:57 51.47588 -0.46810 85 ft 22 kts 267°
2026-05-07 10:58 51.47581 -0.47061 85 ft 23 kts 270°
2026-05-07 10:58 51.47581 -0.47322 86 ft 20 kts 269°
2026-05-07 10:58 51.47580 -0.47532 86 ft 19 kts 268°
2026-05-07 10:58 51.47579 -0.47748 84 ft 18 kts 270°
2026-05-07 10:59 51.47578 -0.47963 83 ft 16 kts 269°
2026-05-07 10:59 51.47576 -0.48124 82 ft 14 kts 268°
2026-05-07 10:59 51.47577 -0.48297 81 ft 15 kts 264°
2026-05-07 10:59 51.47493 -0.48361 80 ft 16 kts 181°
2026-05-07 11:00 51.47378 -0.48360 80 ft 17 kts 180°
2026-05-07 11:00 51.47254 -0.48358 80 ft 18 kts 179°
2026-05-07 11:00 51.47188 -0.48348 80 ft 4 kts 136°
2026-05-07 11:00 51.47181 -0.48296 80 ft 6 kts 92°
2026-05-07 11:01 51.47180 -0.48241 80 ft 3 kts 90°
2026-05-07 11:01 51.47180 -0.48235 80 ft 0 kts 90°
2026-05-07 11:01 51.47180 -0.48213 80 ft 0 kts 89°